STARLINK-4728 (53793 NORAD) Tracking and Keplerian Element Data

This shows tracking and keplerian element data for the satellite.

Feedback or suggestion? Click here.




ElementValue
Catalog53793
NameSTARLINK-4728
Epoch Orbit1107
Epoch Day325.33334491
Epoch Year2022
RAAN280.4142
Inclination53.2168
Eccentricity0.0001643
Argument of Perigee42.0195
Mean Anonmoly296.075
Mean Motion15.11690138
Decay Rate-0.01146216
L11 53793U 22111W 22325.33334491 -.01146216 00000+0 -72287-1 0 9997
L22 53793 53.2168 280.4142 0001643 42.0195 296.0750 15.11690138 11073



Live tracking and technical data element details for STARLINK-4728 (NORAD 53793). STARLINK-4728 can be tracked NOW for your location showing map with azimuth and elevation plus other details from your city location.







IsCatalogInMostPopularTable: catalog: 53793, numindb: -1

Insert: records affected: 1


GetName: 53793 STARLINK-4728

Hit Count: inserted at: Thu, 08 Dec 2022 10:18:13 GMT